TimePST,TemperatureF,Dew PointF,Humidity,Sea Level PressureIn,VisibilityMPH,Wind Direction,Wind SpeedMPH,Gust SpeedMPH,PrecipitationIn,Events,Conditions,WindDirDegrees,DateUTC
12:53 AM,32.0,30.9,96,29.98,5.0,SW,3.5,-,N/A,,Overcast,230,2012-12-27 08:53:00
2:53 AM,32.0,30.9,96,30.01,1.2,Calm,Calm,-,0.00,Snow,Light Snow,0,2012-12-27 10:53:00
3:53 AM,32.0,30.9,96,30.01,1.0,Calm,Calm,-,0.00,,Overcast,0,2012-12-27 11:53:00
4:02 AM,32.0,30.2,93,29.97,0.5,Calm,Calm,-,0.00,Fog-Snow,Light Snow,0,2012-12-27 12:02:00
4:30 AM,32.0,30.2,93,29.98,1.0,SSW,3.5,-,0.00,Snow,Light Snow,210,2012-12-27 12:30:00
4:53 AM,32.0,30.9,96,30.02,1.0,Calm,Calm,-,0.00,,Overcast,0,2012-12-27 12:53:00
5:53 AM,30.9,30.9,100,30.04,1.5,South,3.5,-,0.00,,Overcast,180,2012-12-27 13:53:00
6:01 AM,30.2,30.2,100,30.00,1.2,South,4.6,-,N/A,,Overcast,180,2012-12-27 14:01:00
6:12 AM,30.2,30.2,100,30.00,2.5,South,3.5,-,N/A,,Overcast,170,2012-12-27 14:12:00
7:53 AM,30.9,30.0,96,30.06,1.5,Calm,Calm,-,0.00,,Overcast,0,2012-12-27 15:53:00
8:53 AM,30.9,30.9,100,30.08,0.8,Calm,Calm,-,N/A,,Overcast,0,2012-12-27 16:53:00
9:19 AM,32.0,30.2,93,30.05,1.5,Calm,Calm,-,N/A,,Overcast,0,2012-12-27 17:19:00
9:40 AM,32.0,30.2,93,30.06,0.8,Calm,Calm,-,N/A,,Overcast,0,2012-12-27 17:40:00
9:53 AM,32.0,30.9,96,30.11,0.8,Calm,Calm,-,N/A,,Overcast,0,2012-12-27 17:53:00
10:30 AM,33.8,30.2,87,30.07,1.2,Calm,Calm,-,N/A,,Overcast,0,2012-12-27 18:30:00
10:44 AM,33.8,30.2,87,30.07,0.8,Calm,Calm,-,N/A,,Overcast,0,2012-12-27 18:44:00
10:53 AM,33.1,30.9,92,30.10,0.8,Calm,Calm,-,N/A,,Overcast,0,2012-12-27 18:53:00
11:02 AM,33.8,30.2,87,30.07,2.0,Calm,Calm,-,N/A,,Overcast,0,2012-12-27 19:02:00
11:31 AM,33.8,30.2,87,30.07,4.0,Calm,Calm,-,N/A,,Overcast,0,2012-12-27 19:31:00
11:49 AM,33.8,30.2,87,30.06,4.0,Calm,Calm,-,N/A,,Overcast,0,2012-12-27 19:49:00
11:53 AM,33.1,30.9,92,30.11,4.0,Calm,Calm,-,N/A,,Overcast,0,2012-12-27 19:53:00
12:53 PM,33.1,30.9,92,30.10,4.0,Calm,Calm,-,N/A,,Overcast,0,2012-12-27 20:53:00
1:07 PM,33.8,30.2,87,30.06,5.0,Calm,Calm,-,N/A,,Overcast,0,2012-12-27 21:07:00
1:53 PM,34.0,30.9,89,30.10,4.0,Calm,Calm,-,N/A,,Overcast,0,2012-12-27 21:53:00
2:07 PM,33.8,30.2,87,30.07,4.0,SE,3.5,-,N/A,,Overcast,130,2012-12-27 22:07:00
2:53 PM,33.1,30.0,89,30.13,9.0,South,4.6,-,N/A,,Overcast,180,2012-12-27 22:53:00
4:05 PM,33.8,28.4,81,30.08,10.0,South,3.5,-,N/A,,Overcast,170,2012-12-28 00:05:00
4:53 PM,32.0,28.9,88,30.14,10.0,SSW,4.6,-,N/A,,Overcast,200,2012-12-28 00:53:00
5:53 PM,32.0,28.9,88,30.15,10.0,Calm,Calm,-,N/A,,Overcast,0,2012-12-28 01:53:00
6:53 PM,32.0,28.9,88,30.15,10.0,WSW,3.5,-,N/A,,Overcast,240,2012-12-28 02:53:00
7:12 PM,32.0,28.4,87,30.11,10.0,Calm,Calm,-,N/A,,Overcast,0,2012-12-28 03:12:00
7:53 PM,32.0,28.9,88,30.15,10.0,Calm,Calm,-,N/A,,Overcast,0,2012-12-28 03:53:00
8:53 PM,32.0,30.0,92,30.16,8.0,Calm,Calm,-,N/A,,Overcast,0,2012-12-28 04:53:00
9:53 PM,32.0,28.9,88,30.17,8.0,South,3.5,-,N/A,,Overcast,190,2012-12-28 05:53:00
10:53 PM,32.0,28.9,88,30.19,8.0,Calm,Calm,-,N/A,,Overcast,0,2012-12-28 06:53:00
11:53 PM,32.0,28.9,88,30.20,8.0,Calm,Calm,-,N/A,,Overcast,0,2012-12-28 07:53:00